Created_Date(Asia/Kolkata),AQI,PM2.5,PM10,Temperature,Humidity
2023-05-01 09:00:00,91,54.5,71.0,28.0,54.0
2023-05-01 10:00:00,92,55.0,74.5,29.0,53.0
2023-05-01 11:00:00,95,57.0,83.5,28.5,54.0
2023-05-01 12:00:00,68,41.0,67.0,25.5,56.5
2023-05-01 13:00:00,44,25.0,44.0,28.0,54.0
2023-05-01 14:00:00,82,49.5,66.5,27.0,60.0
2023-05-01 15:00:00,123,67.0,89.5,28.0,58.5
2023-05-01 16:00:00,187,86.0,122.0,28.0,60.5
2023-05-01 17:00:00,152,75.5,101.5,27.5,60.0
2023-05-01 18:00:00,120,66.0,90.5,27.0,61.0
2023-05-01 19:00:00,140,72.0,104.0,27.0,63.0
2023-05-01 20:00:00,113,64.0,89.0,27.0,61.5
2023-05-01 21:00:00,118,65.5,92.5,27.0,62.0
2023-05-01 22:00:00,99,59.5,82.5,27.0,60.5
2023-05-01 23:00:00,100,60.0,83.5,27.0,60.0
2023-05-02 00:00:00,92,55.5,82.0,27.0,60.0
2023-05-02 01:00:00,72,43.0,60.0,27.0,59.5
2023-05-02 02:00:00,52,31.0,43.5,27.0,57.5
2023-05-02 03:00:00,54,32.5,45.0,27.0,57.5
2023-05-02 04:00:00,55,33.0,45.5,27.0,58.0
2023-05-02 05:00:00,60,36.0,50.0,27.0,58.0
2023-05-02 06:00:00,66,39.5,56.5,27.0,58.5
2023-05-02 07:00:00,66,39.5,57.0,27.0,58.0
2023-05-02 08:00:00,74,44.5,65.0,27.5,56.5
2023-05-02 09:00:00,95,57.0,88.5,28.0,56.5
2023-05-02 10:00:00,186,76.0,229.0,28.0,56.0
2023-05-02 11:00:00,163,79.0,159.5,28.0,56.0
2023-05-02 12:00:00,150,75.0,129.5,29.0,55.0
2023-05-02 13:00:00,130,69.0,97.5,29.0,54.0
2023-05-02 14:00:00,162,78.5,137.0,29.5,55.0
2023-05-02 15:00:00,148,74.5,140.5,28.0,57.5
2023-05-02 16:00:00,134,65.0,150.5,28.0,58.5
2023-05-02 17:00:00,121,50.0,131.5,28.0,58.5
2023-05-02 18:00:00,96,48.5,95.5,28.0,60.0
2023-05-02 19:00:00,95,53.5,95.0,27.0,62.5
2023-05-02 20:00:00,90,54.0,86.5,27.0,64.0
2023-05-02 21:00:00,95,57.0,87.5,27.0,64.5
2023-05-02 22:00:00,110,63.0,96.0,27.0,65.0
2023-05-02 23:00:00,135,70.5,109.0,27.0,65.0
2023-05-03 00:00:00,148,74.5,119.5,27.0,65.5
2023-05-03 01:00:00,103,61.0,92.0,26.0,66.5
2023-05-03 02:00:00,98,58.5,90.0,26.0,66.0
2023-05-03 03:00:00,100,60.0,100.5,26.5,65.0
2023-05-03 04:00:00,110,63.0,98.0,26.0,63.5
2023-05-03 05:00:00,115,64.5,101.5,26.0,63.0
2023-05-03 06:00:00,172,81.5,129.0,26.5,62.5
2023-05-03 07:00:00,115,64.5,100.5,27.0,60.5
2023-05-03 08:00:00,112,63.5,97.0,27.0,59.0
2023-05-03 09:00:00,374,115.5,409.0,27.5,59.0
2023-05-03 10:00:00,226,83.5,275.5,28.5,57.5
2023-05-03 11:00:00,152,75.5,166.0,29.5,54.5
2023-05-03 12:00:00,238,90.0,288.5,29.5,54.0
2023-05-03 13:00:00,118,58.5,126.5,28.5,53.0
2023-05-03 14:00:00,63,27.5,63.0,24.5,65.5
2023-05-03 15:00:00,459,86.0,477.0,24.5,69.0
2023-05-03 16:00:00,109,35.5,113.0,24.5,69.0
2023-05-03 17:00:00,146,40.0,169.5,25.0,67.5
2023-05-03 18:00:00,64,36.5,64.0,25.0,67.5
2023-05-03 19:00:00,67,34.5,67.0,25.0,69.0
2023-05-03 20:00:00,71,42.5,62.0,24.0,76.0
2023-05-03 21:00:00,83,50.0,68.0,25.0,70.0
2023-05-03 22:00:00,89,53.5,75.0,25.0,72.0
2023-05-03 23:00:00,98,59.0,84.5,25.0,69.5
2023-05-04 00:00:00,108,62.5,88.5,25.0,69.0
2023-05-04 01:00:00,143,73.0,103.5,25.0,68.0
2023-05-04 02:00:00,145,73.5,112.5,25.0,69.0
2023-05-04 03:00:00,143,73.0,113.0,25.0,71.0
2023-05-04 04:00:00,142,72.5,112.5,24.5,69.5
2023-05-04 05:00:00,210,93.0,150.5,23.5,74.0
2023-05-04 06:00:00,238,101.5,160.0,25.0,71.0
2023-05-04 07:00:00,340,171.5,272.5,25.5,68.0
2023-05-04 08:00:00,320,145.5,250.0,26.0,65.5
2023-05-04 09:00:00,306,128.0,274.5,25.5,66.5
2023-05-04 10:00:00,247,104.0,232.0,26.5,63.5
2023-05-04 11:00:00,197,89.0,228.5,27.5,59.0
2023-05-04 12:00:00,153,64.5,179.5,28.0,51.0
2023-05-04 13:00:00,95,55.5,95.0,30.0,48.0
2023-05-04 14:00:00,87,52.0,86.0,33.0,40.0
2023-05-04 15:00:00,91,54.5,90.0,35.5,35.0
2023-05-04 16:00:00,102,55.5,103.5,36.0,33.5
2023-05-04 17:00:00,137,60.5,155.0,35.0,35.5
2023-05-04 18:00:00,101,50.5,102.0,32.0,41.0
2023-05-04 19:00:00,133,60.0,149.5,30.0,45.5
2023-05-04 20:00:00,130,62.5,145.5,28.5,49.0
2023-05-04 21:00:00,170,81.0,173.5,27.5,53.5
2023-05-04 22:00:00,208,92.5,190.5,27.0,55.5
2023-05-04 23:00:00,175,82.5,160.0,27.0,57.5
2023-05-05 00:00:00,163,79.0,147.0,27.0,59.5
2023-05-05 01:00:00,148,74.5,130.0,26.5,60.0
2023-05-05 02:00:00,145,73.5,121.0,25.5,62.0
2023-05-05 03:00:00,148,74.5,134.0,25.0,63.5
2023-05-05 04:00:00,133,70.0,110.5,25.0,63.0
2023-05-05 05:00:00,158,77.5,123.5,25.0,64.0
2023-05-05 06:00:00,178,83.5,143.5,25.5,63.5
2023-05-05 07:00:00,227,98.0,180.5,25.5,65.5
2023-05-05 08:00:00,339,171.0,268.5,26.5,65.5
2023-05-05 09:00:00,350,185.5,278.0,28.0,59.0
2023-05-05 10:00:00,308,131.0,225.5,29.0,54.0
2023-05-05 11:00:00,235,100.5,188.0,30.5,47.5
2023-05-05 12:00:00,153,76.0,145.0,31.5,41.5
2023-05-05 13:00:00,93,54.0,93.0,32.5,37.0
2023-05-05 14:00:00,80,48.0,78.5,34.5,33.5
2023-05-05 15:00:00,77,46.0,74.5,35.5,32.0
2023-05-05 16:00:00,72,43.5,71.0,36.0,30.5
2023-05-05 17:00:00,74,44.5,74.0,36.0,30.0
2023-05-05 18:00:00,91,52.5,91.0,34.0,32.0
2023-05-05 19:00:00,132,66.0,147.5,32.5,36.5
2023-05-05 20:00:00,157,77.0,184.0,32.0,38.0
2023-05-05 21:00:00,197,89.0,187.0,31.0,38.0
2023-05-05 22:00:00,297,119.0,249.0,31.0,41.0
2023-05-05 23:00:00,317,142.0,282.0,30.0,45.0
2023-05-06 00:00:00,365,204.5,315.5,30.0,45.0
2023-05-06 01:00:00,362,200.5,305.5,29.0,42.0
2023-05-06 02:00:00,335,165.5,272.0,29.0,42.0
2023-05-06 03:00:00,323,150.0,260.5,28.0,43.5
2023-05-06 04:00:00,365,204.5,313.0,28.0,47.5
2023-05-06 05:00:00,380,224.0,346.0,27.5,48.0
2023-05-06 06:00:00,451,316.0,465.5,27.0,53.0
2023-05-06 07:00:00,434,294.0,429.0,27.0,52.5
2023-05-06 08:00:00,394,242.0,365.5,28.5,48.0
2023-05-06 09:00:00,334,164.5,276.0,29.5,43.0
2023-05-06 10:00:00,128,67.5,142.5,30.5,39.5
2023-05-06 11:00:00,105,39.0,108.0,32.0,34.0
2023-05-06 12:00:00,107,25.5,110.0,28.5,41.5
2023-05-06 13:00:00,50,12.5,50.0,30.5,35.5
2023-05-06 14:00:00,46,11.0,46.0,34.5,26.0
2023-05-06 15:00:00,51,14.0,51.0,36.0,26.0
2023-05-06 16:00:00,72,17.0,72.5,37.0,26.0
2023-05-06 17:00:00,54,19.5,54.5,36.5,27.0
2023-05-06 18:00:00,64,26.0,63.5,34.5,31.0
2023-05-06 19:00:00,88,34.5,88.5,32.5,34.0
2023-05-06 20:00:00,134,59.0,151.0,32.0,37.5
2023-05-06 21:00:00,178,83.5,210.5,31.0,38.5
2023-05-06 22:00:00,169,79.0,203.0,31.0,38.0
2023-05-06 23:00:00,157,70.0,185.5,30.0,39.0
2023-05-07 00:00:00,228,98.5,243.0,29.5,41.5
2023-05-07 01:00:00,153,71.0,179.0,28.5,43.5
2023-05-07 02:00:00,92,39.5,91.5,28.0,42.5
2023-05-07 03:00:00,82,33.5,82.0,28.0,42.0
2023-05-07 04:00:00,95,36.5,95.0,28.0,43.5
2023-05-07 05:00:00,169,74.5,203.5,28.0,45.5
2023-05-07 06:00:00,228,98.5,256.0,27.5,45.0
2023-05-07 07:00:00,117,49.0,125.5,28.0,44.0
2023-05-07 08:00:00,96,39.5,96.0,29.5,40.5
2023-05-07 09:00:00,127,39.5,140.0,31.5,35.5
2023-05-07 10:00:00,155,40.5,182.5,32.5,33.0
2023-05-07 11:00:00,160,78.0,183.5,34.0,34.5
2023-05-07 12:00:00,180,84.0,188.0,33.5,39.5
2023-05-07 13:00:00,123,64.5,134.0,34.5,37.0
2023-05-07 14:00:00,94,41.5,94.5,38.0,30.0
2023-05-07 15:00:00,88,33.5,87.5,40.5,24.0
2023-05-07 16:00:00,86,31.5,85.5,40.0,21.5
2023-05-07 17:00:00,106,31.5,108.5,35.0,30.5
2023-05-07 18:00:00,66,29.0,66.5,30.5,41.5
2023-05-07 19:00:00,76,37.5,75.5,30.0,44.0
2023-05-07 20:00:00,82,41.5,81.5,30.0,46.0
2023-05-07 21:00:00,94,51.0,94.0,30.0,48.0
2023-05-07 22:00:00,88,46.0,88.0,29.5,47.5
2023-05-07 23:00:00,113,64.0,117.0,29.0,47.5
2023-05-08 00:00:00,175,82.5,147.5,29.0,48.5
2023-05-08 01:00:00,125,67.5,127.5,29.0,50.0
2023-05-08 02:00:00,148,74.5,147.5,29.0,51.0
2023-05-08 03:00:00,142,72.5,139.0,29.0,52.0
2023-05-08 04:00:00,163,79.0,152.0,28.0,53.5
2023-05-08 05:00:00,162,78.5,154.5,29.0,53.0
2023-05-08 06:00:00,178,83.5,173.5,29.0,53.0
2023-05-08 07:00:00,190,87.0,162.0,29.0,53.5
2023-05-08 08:00:00,118,65.5,125.5,30.0,48.0
2023-05-08 09:00:00,140,50.0,159.5,30.0,43.0
2023-05-08 10:00:00,150,41.0,175.0,30.5,40.0
2023-05-08 11:00:00,153,37.5,179.0,31.0,38.5
2023-05-08 12:00:00,117,30.5,125.5,32.0,37.5
2023-05-08 13:00:00,71,23.5,71.0,33.0,35.0
2023-05-08 14:00:00,143,36.5,164.0,36.5,31.0
2023-05-08 15:00:00,148,33.0,171.5,38.0,27.0
2023-05-08 16:00:00,139,31.0,158.5,37.0,27.0
2023-05-08 17:00:00,166,35.5,199.5,38.0,26.0
2023-05-08 18:00:00,115,30.0,122.5,35.0,32.0
2023-05-08 19:00:00,94,30.0,93.5,33.0,34.0
2023-05-08 20:00:00,93,33.0,93.0,32.0,33.5
2023-05-08 21:00:00,100,36.5,100.5,32.0,33.0
2023-05-08 22:00:00,88,37.0,87.5,31.0,36.0
2023-05-08 23:00:00,66,31.0,66.0,31.0,34.5
2023-05-09 00:00:00,75,34.0,75.0,30.5,37.0
2023-05-09 01:00:00,92,38.0,91.5,30.0,38.5
2023-05-09 02:00:00,132,54.0,147.5,30.0,41.0
2023-05-09 03:00:00,139,64.0,159.0,30.0,43.5
2023-05-09 04:00:00,298,119.5,257.0,28.5,48.0
2023-05-09 05:00:00,313,137.5,277.0,28.0,50.0
2023-05-09 06:00:00,387,233.0,386.0,27.0,53.0
2023-05-09 07:00:00,416,271.0,432.5,27.0,52.0
2023-05-09 08:00:00,409,262.0,418.5,28.5,49.0
2023-05-09 09:00:00,362,201.0,344.5,30.5,41.0
2023-05-09 10:00:00,272,111.5,256.5,31.5,31.5
2023-05-09 11:00:00,155,75.5,183.0,33.0,25.5
2023-05-09 12:00:00,122,55.5,133.5,34.5,24.5
2023-05-09 13:00:00,102,41.5,102.5,36.0,20.0
2023-05-09 14:00:00,86,34.5,85.5,39.5,16.0
2023-05-09 15:00:00,96,35.5,96.0,40.5,15.0
2023-05-09 16:00:00,82,34.5,82.0,40.5,14.5
2023-05-09 17:00:00,92,35.0,92.5,39.5,14.5
2023-05-09 18:00:00,122,38.0,133.0,37.0,16.0
2023-05-09 19:00:00,145,49.0,167.5,35.0,18.0
2023-05-09 20:00:00,140,54.0,159.5,34.0,17.5
2023-05-09 21:00:00,139,58.5,159.0,33.0,18.5
2023-05-09 22:00:00,145,70.0,167.0,32.0,19.0
2023-05-09 23:00:00,136,67.5,154.0,32.0,19.0
2023-05-10 00:00:00,147,74.0,169.5,31.5,20.0
2023-05-10 01:00:00,170,81.0,166.5,30.0,21.5
2023-05-10 02:00:00,162,78.5,160.5,29.5,23.5
2023-05-10 03:00:00,237,101.0,213.5,28.5,24.5
2023-05-10 04:00:00,303,124.5,255.0,28.0,26.5
2023-05-10 05:00:00,242,102.5,229.0,27.5,26.5
2023-05-10 06:00:00,270,111.0,247.0,27.5,28.0
2023-05-10 07:00:00,302,123.0,263.0,28.0,30.0
2023-05-10 08:00:00,153,73.5,180.0,29.5,26.0
2023-05-10 09:00:00,121,59.5,132.0,31.0,21.5
2023-05-10 10:00:00,89,37.0,89.0,32.0,18.5
2023-05-10 11:00:00,72,32.0,72.0,33.0,17.5
2023-05-10 12:00:00,62,29.5,61.5,34.5,17.0
2023-05-10 13:00:00,58,25.0,58.0,36.0,16.0
2023-05-10 14:00:00,60,23.0,60.5,39.0,14.5
2023-05-10 15:00:00,66,20.5,66.5,39.5,12.5
2023-05-10 16:00:00,57,18.0,57.0,40.0,11.0
2023-05-10 17:00:00,60,17.5,59.5,39.5,11.0
2023-05-10 18:00:00,82,26.0,82.5,37.5,12.5
2023-05-10 19:00:00,118,38.5,126.5,36.0,14.0
2023-05-10 20:00:00,134,49.5,151.5,35.5,15.0
2023-05-10 21:00:00,175,68.5,212.5,35.0,17.5
2023-05-10 22:00:00,292,117.5,274.0,33.5,19.5
2023-05-10 23:00:00,343,175.5,321.5,33.0,21.0
2023-05-11 00:00:00,328,156.0,301.5,32.0,22.5
2023-05-11 01:00:00,359,196.5,326.5,31.0,25.5
2023-05-11 02:00:00,389,235.5,361.5,30.0,25.0
2023-05-11 03:00:00,382,227.0,346.5,30.0,25.0
2023-05-11 04:00:00,373,214.5,331.0,30.0,26.5
2023-05-11 05:00:00,378,221.5,352.5,29.0,28.0
2023-05-11 06:00:00,399,248.5,395.0,28.0,30.5
2023-05-11 07:00:00,397,245.5,400.0,28.5,31.0
2023-05-11 08:00:00,373,215.5,360.5,30.5,30.0
2023-05-11 09:00:00,302,122.5,277.0,32.5,27.5
2023-05-11 10:00:00,146,65.5,169.5,34.5,23.5
2023-05-11 11:00:00,88,33.0,88.5,35.5,19.5
2023-05-11 12:00:00,96,38.5,95.5,36.0,18.0
2023-05-11 13:00:00,103,47.5,104.5,38.0,16.5
2023-05-11 14:00:00,88,38.5,88.5,40.5,14.5
2023-05-11 15:00:00,96,32.5,96.5,42.5,13.5
2023-05-11 16:00:00,146,43.5,168.5,43.5,12.5
2023-05-11 17:00:00,198,57.5,246.5,43.5,13.0
2023-05-11 18:00:00,234,51.0,284.0,39.5,16.0
2023-05-11 19:00:00,180,49.0,220.0,36.0,18.5
2023-05-11 20:00:00,119,40.5,128.5,35.0,21.5
2023-05-11 21:00:00,121,48.0,132.0,34.5,22.5
2023-05-11 22:00:00,131,58.0,146.0,34.0,22.5
2023-05-11 23:00:00,162,72.5,193.0,34.0,23.5
2023-05-12 00:00:00,195,88.5,227.5,33.0,26.5
2023-05-12 01:00:00,283,115.0,257.0,32.0,28.0
2023-05-12 02:00:00,325,152.5,291.0,32.0,27.0
2023-05-12 03:00:00,232,99.5,222.0,32.0,26.0
2023-05-12 04:00:00,195,88.5,205.0,32.0,25.0
2023-05-12 05:00:00,133,63.5,149.5,31.0,26.0
2023-05-12 06:00:00,162,71.0,193.5,30.0,27.5
2023-05-12 07:00:00,133,60.5,149.0,31.5,26.0
2023-05-12 08:00:00,118,51.0,127.5,32.5,21.5
2023-05-12 09:00:00,136,54.5,154.0,34.5,20.0
2023-05-12 10:00:00,112,42.0,118.5,36.0,17.5
2023-05-12 11:00:00,100,39.5,100.5,37.5,16.0
2023-05-12 12:00:00,95,35.0,95.0,39.0,14.0
2023-05-12 13:00:00,76,26.0,75.5,40.5,13.0
2023-05-12 14:00:00,68,20.5,67.5,42.5,10.5
2023-05-12 15:00:00,76,21.5,75.5,44.5,10.0
2023-05-12 16:00:00,72,25.0,72.5,45.5,10.0
2023-05-12 17:00:00,82,30.0,81.5,44.5,11.0
2023-05-12 18:00:00,226,57.5,276.0,40.5,14.5
2023-05-12 19:00:00,150,54.5,174.5,37.0,20.5
2023-05-12 20:00:00,117,58.0,125.0,36.0,24.5
2023-05-12 21:00:00,118,55.0,127.5,36.0,26.0
2023-05-12 22:00:00,110,55.0,115.0,36.0,26.5
2023-05-12 23:00:00,115,58.0,123.0,35.0,28.0
2023-05-13 00:00:00,130,65.0,145.0,35.0,28.5
2023-05-13 01:00:00,129,64.5,144.0,34.0,29.5
2023-05-13 02:00:00,134,67.5,151.5,34.0,31.0
2023-05-13 03:00:00,129,66.0,143.5,34.0,31.5
2023-05-13 04:00:00,140,72.0,149.0,33.0,30.5
2023-05-13 05:00:00,162,78.5,167.0,33.0,30.0
2023-05-13 06:00:00,190,87.0,181.0,33.0,30.0
2023-05-13 07:00:00,125,67.5,138.0,34.0,28.5
2023-05-13 08:00:00,125,63.5,137.5,34.5,27.0
2023-05-13 09:00:00,195,76.0,242.0,35.0,26.0
2023-05-13 10:00:00,261,79.5,311.0,36.0,24.5
2023-05-13 11:00:00,260,78.5,310.0,36.0,23.0
2023-05-13 12:00:00,149,57.0,174.0,36.5,22.5
2023-05-13 13:00:00,102,45.5,103.0,38.0,21.0
2023-05-13 14:00:00,197,69.5,246.0,41.0,18.5
2023-05-13 15:00:00,175,52.0,212.0,42.5,16.0
2023-05-13 16:00:00,155,49.5,183.0,44.5,14.0
2023-05-13 17:00:00,120,40.5,129.5,43.5,15.0
2023-05-13 18:00:00,224,63.0,274.0,41.0,18.0
2023-05-13 19:00:00,169,60.5,203.5,37.5,21.5
2023-05-13 20:00:00,189,70.0,233.5,36.5,24.0
2023-05-13 21:00:00,116,53.0,124.0,36.0,24.5
2023-05-13 22:00:00,120,54.5,129.5,36.0,24.5
2023-05-13 23:00:00,128,59.0,141.5,36.0,27.0
2023-05-14 00:00:00,108,52.5,111.5,36.0,26.5
2023-05-14 01:00:00,116,57.0,124.5,35.5,27.0
2023-05-14 02:00:00,237,101.0,240.0,35.0,30.5
2023-05-14 03:00:00,304,125.5,259.5,35.0,30.0
2023-05-14 04:00:00,302,122.0,250.0,34.5,30.5
2023-05-14 05:00:00,287,116.0,240.5,34.0,32.0
2023-05-14 06:00:00,170,81.0,173.0,34.0,31.5
2023-05-14 07:00:00,235,100.5,221.0,33.5,33.5
2023-05-14 08:00:00,301,121.0,253.5,32.5,35.5
2023-05-14 09:00:00,215,94.5,248.5,34.5,33.5
2023-05-14 10:00:00,188,81.0,232.5,35.5,31.5
2023-05-14 11:00:00,188,73.0,232.0,36.0,29.0
2023-05-14 12:00:00,135,56.5,152.5,37.5,25.5
2023-05-14 13:00:00,105,48.0,107.0,39.5,23.0
2023-05-14 14:00:00,101,41.5,102.0,42.5,20.0
2023-05-14 15:00:00,96,37.0,96.5,43.0,17.0
2023-05-14 16:00:00,89,34.5,89.0,43.0,16.5
2023-05-14 17:00:00,99,37.0,99.0,41.5,19.0
2023-05-14 18:00:00,96,35.5,95.5,39.5,21.5
2023-05-14 19:00:00,118,35.0,127.5,38.5,20.5
2023-05-14 20:00:00,145,31.5,168.0,36.5,18.0
2023-05-14 21:00:00,105,21.0,107.0,36.0,18.5
2023-05-14 22:00:00,80,21.0,80.0,35.5,21.5
2023-05-14 23:00:00,74,20.5,73.5,35.0,23.0
2023-05-15 00:00:00,62,15.5,62.0,33.5,24.5
2023-05-15 01:00:00,72,12.0,71.5,32.0,26.5
2023-05-15 02:00:00,58,9.0,57.5,32.0,29.0
2023-05-15 03:00:00,56,8.5,55.5,31.0,31.5
2023-05-15 04:00:00,54,14.5,54.0,30.5,33.5
2023-05-15 05:00:00,56,15.0,55.5,30.0,35.5
2023-05-15 06:00:00,64,17.0,64.0,30.0,36.5
2023-05-15 07:00:00,73,19.5,73.0,31.0,36.0
2023-05-15 08:00:00,78,26.0,77.5,31.5,33.5
2023-05-15 09:00:00,102,39.0,103.5,32.5,32.0
2023-05-15 10:00:00,94,33.0,94.0,34.5,29.5
2023-05-15 11:00:00,92,29.0,92.5,35.5,28.0
2023-05-15 12:00:00,88,26.5,87.5,37.5,24.5
2023-05-15 13:00:00,89,27.5,89.0,40.0,22.0
2023-05-15 14:00:00,90,24.0,89.5,43.5,17.5
2023-05-15 15:00:00,100,24.0,100.5,44.5,15.5
2023-05-15 16:00:00,96,22.5,96.0,46.0,13.5
2023-05-15 17:00:00,86,20.0,86.5,45.0,13.0
2023-05-15 18:00:00,134,30.0,150.5,42.5,14.5
2023-05-15 19:00:00,181,41.5,222.0,39.5,18.5
2023-05-15 20:00:00,190,49.0,235.0,37.5,20.0
2023-05-15 21:00:00,92,18.5,91.5,36.0,20.0
2023-05-15 22:00:00,153,24.0,180.0,35.5,22.0
2023-05-15 23:00:00,146,21.5,169.0,34.5,23.5
2023-05-16 00:00:00,62,11.0,62.5,33.5,26.5
2023-05-16 01:00:00,58,10.0,58.5,32.5,27.5
2023-05-16 02:00:00,60,11.0,60.0,31.5,31.0
2023-05-16 03:00:00,94,16.5,94.5,31.0,34.0
2023-05-16 04:00:00,222,38.5,272.0,31.0,35.0
2023-05-16 05:00:00,319,53.5,365.5,30.5,37.0
2023-05-16 06:00:00,382,64.5,415.5,30.0,37.5
2023-05-16 07:00:00,568,93.5,564.5,31.0,35.0
2023-05-16 08:00:00,786,146.0,738.5,32.0,35.0
2023-05-16 09:00:00,774,151.0,729.0,33.5,34.0
2023-05-16 10:00:00,461,85.0,478.5,34.5,32.0
2023-05-16 11:00:00,324,61.0,369.5,35.5,28.5
2023-05-16 12:00:00,294,56.0,344.5,37.5,25.5
2023-05-16 13:00:00,222,42.0,272.0,38.5,21.0
2023-05-16 14:00:00,159,30.0,188.0,40.5,18.0
2023-05-16 15:00:00,139,27.5,158.5,42.0,17.0
2023-05-16 16:00:00,166,32.5,198.5,42.0,17.0
2023-05-16 17:00:00,189,38.5,234.0,41.5,18.0
2023-05-16 18:00:00,222,45.0,271.5,39.5,20.0
2023-05-16 19:00:00,254,55.5,304.5,38.5,22.0
2023-05-16 20:00:00,278,61.0,328.0,38.0,22.5
2023-05-16 21:00:00,284,66.5,334.5,37.0,24.0
2023-05-16 22:00:00,266,63.5,316.0,36.0,24.5
2023-05-16 23:00:00,275,75.0,325.0,36.0,25.5
2023-05-17 00:00:00,276,85.0,326.0,36.0,26.0
2023-05-17 01:00:00,289,105.0,339.0,35.0,27.0
2023-05-17 02:00:00,200,72.0,250.0,35.0,26.0
2023-05-17 03:00:00,198,80.5,247.5,34.0,27.5
2023-05-17 04:00:00,232,89.5,281.5,33.0,30.0
2023-05-17 05:00:00,288,110.5,338.5,32.0,33.0
2023-05-17 06:00:00,305,126.0,354.0,32.0,33.5
2023-05-17 07:00:00,252,100.5,302.0,32.0,34.0
2023-05-17 08:00:00,267,110.0,293.5,32.0,33.5
2023-05-17 09:00:00,128,42.5,141.5,32.5,33.0
2023-05-17 10:00:00,117,33.0,125.0,34.5,31.0
2023-05-17 11:00:00,155,31.5,182.5,36.0,27.5
2023-05-17 12:00:00,118,28.5,126.5,38.0,23.0
2023-05-17 13:00:00,112,28.5,117.5,39.5,22.0
2023-05-17 14:00:00,122,29.0,132.5,41.0,21.5
2023-05-17 18:00:00,167,40.0,200.0,36.0,27.0
2023-05-17 19:00:00,131,33.5,147.0,36.0,25.0
2023-05-17 20:00:00,148,35.0,172.0,36.0,27.5
2023-05-17 21:00:00,75,21.5,75.0,35.0,32.5
2023-05-17 22:00:00,68,20.0,67.5,35.0,33.0
2023-05-17 23:00:00,60,18.0,60.5,35.0,33.0
2023-05-18 00:00:00,98,22.0,98.5,33.5,35.5
2023-05-18 01:00:00,58,12.0,58.0,29.0,49.0
2023-05-18 02:00:00,80,24.5,80.0,28.0,57.0
2023-05-18 03:00:00,149,39.5,174.0,26.0,67.0
2023-05-18 04:00:00,73,21.5,73.0,25.0,64.5
2023-05-18 05:00:00,64,23.0,63.5,29.0,53.0
2023-05-18 06:00:00,70,31.5,69.5,30.0,49.5
2023-05-18 07:00:00,71,32.0,71.0,31.0,48.0
2023-05-18 08:00:00,69,31.0,69.0,31.5,45.5
2023-05-18 09:00:00,185,44.0,228.0,32.0,43.5
2023-05-18 10:00:00,222,49.5,272.0,32.0,41.5
2023-05-18 11:00:00,154,36.5,181.5,33.0,39.0
2023-05-18 12:00:00,107,27.0,110.0,34.0,36.0
2023-05-18 13:00:00,66,20.5,65.5,35.5,32.5
2023-05-18 14:00:00,92,26.0,91.5,37.0,30.0
2023-05-18 15:00:00,99,29.5,99.0,38.0,29.5
2023-05-18 16:00:00,86,32.5,86.5,38.0,32.5
2023-05-18 17:00:00,78,27.5,78.0,37.5,33.5
2023-05-18 18:00:00,80,26.0,79.5,35.5,36.5
2023-05-18 19:00:00,80,31.0,79.5,33.5,39.5
2023-05-18 20:00:00,92,36.0,92.0,32.5,41.5
2023-05-18 21:00:00,103,38.5,105.0,32.0,42.0
2023-05-18 22:00:00,92,37.0,92.5,32.0,42.0
2023-05-18 23:00:00,88,39.0,88.5,31.0,42.5
2023-05-19 00:00:00,82,37.5,82.0,30.5,43.0
2023-05-19 01:00:00,78,35.5,77.5,30.0,42.0
2023-05-19 02:00:00,114,56.0,120.5,30.0,45.0
2023-05-19 03:00:00,132,65.0,148.0,29.0,48.5
2023-05-19 04:00:00,176,82.0,214.5,28.5,49.5
2023-05-19 05:00:00,168,77.5,202.5,28.0,50.5
2023-05-19 06:00:00,245,103.5,258.0,28.0,53.0
2023-05-19 07:00:00,285,115.5,259.5,28.0,53.5
2023-05-19 08:00:00,192,87.5,199.5,29.0,49.0
2023-05-19 09:00:00,118,62.0,126.5,30.5,42.5
2023-05-19 10:00:00,88,43.0,88.0,32.5,39.0
2023-05-19 11:00:00,80,37.0,79.5,33.5,35.0
2023-05-19 12:00:00,86,34.0,86.0,35.0,30.5
2023-05-19 13:00:00,91,34.0,91.0,36.5,27.5
2023-05-19 14:00:00,100,33.0,100.5,38.5,22.5
2023-05-19 15:00:00,109,31.5,113.5,39.5,19.0
2023-05-19 16:00:00,102,30.0,103.0,40.0,19.0
2023-05-19 17:00:00,101,26.5,101.0,40.0,20.5
2023-05-19 18:00:00,103,26.0,104.0,38.5,23.0
2023-05-19 19:00:00,120,34.5,129.5,36.5,25.5
2023-05-19 20:00:00,151,44.5,176.5,36.0,27.0
2023-05-19 21:00:00,157,53.0,186.0,35.0,27.5
2023-05-19 22:00:00,136,42.0,154.0,34.5,28.0
2023-05-19 23:00:00,119,36.5,128.5,33.5,29.5
2023-05-20 00:00:00,106,34.5,109.5,33.0,30.5
2023-05-20 01:00:00,103,34.0,104.0,32.0,32.0
2023-05-20 02:00:00,105,35.5,107.0,32.0,33.5
2023-05-20 03:00:00,124,49.5,136.5,31.5,36.0
2023-05-20 04:00:00,305,126.0,281.5,30.5,39.5
2023-05-20 05:00:00,336,167.0,329.0,29.5,41.5
2023-05-20 06:00:00,302,122.5,284.0,29.0,44.0
2023-05-20 07:00:00,169,71.0,203.5,30.0,44.0
2023-05-20 08:00:00,170,75.0,205.5,31.5,40.0
2023-05-20 09:00:00,151,65.5,177.0,32.5,39.5
2023-05-20 10:00:00,125,46.0,137.5,33.5,36.5
2023-05-20 11:00:00,104,37.5,105.5,35.5,32.0
2023-05-20 12:00:00,80,26.5,80.0,36.5,27.0
2023-05-20 13:00:00,69,22.0,69.0,38.5,23.0
2023-05-20 14:00:00,64,17.5,64.0,41.0,19.5
2023-05-20 15:00:00,66,18.5,66.0,42.0,17.5
2023-05-20 16:00:00,68,18.0,68.5,43.0,16.0
2023-05-20 17:00:00,72,18.5,72.0,42.0,16.0
2023-05-20 18:00:00,80,19.5,80.0,41.0,16.5
2023-05-20 19:00:00,104,28.0,106.5,39.0,18.5
2023-05-20 20:00:00,129,40.5,143.0,38.0,19.5
2023-05-20 21:00:00,149,52.0,174.0,37.5,21.0
2023-05-20 22:00:00,142,52.0,163.0,37.0,21.0
2023-05-20 23:00:00,123,50.5,134.5,36.5,24.5
2023-05-21 00:00:00,128,55.0,142.0,35.5,25.5
2023-05-21 01:00:00,118,49.5,126.5,35.0,25.5
2023-05-21 02:00:00,150,51.0,175.5,35.0,27.0
2023-05-21 03:00:00,183,72.5,224.5,34.0,28.0
2023-05-21 04:00:00,223,97.0,262.0,33.5,28.5
2023-05-21 05:00:00,167,74.0,200.0,34.0,28.0
2023-05-21 06:00:00,168,74.0,202.5,33.5,30.0
2023-05-21 07:00:00,171,70.5,207.0,33.5,29.0
2023-05-21 08:00:00,141,55.5,161.5,35.5,26.0
2023-05-21 09:00:00,123,48.0,134.5,36.0,25.0
2023-05-21 10:00:00,102,37.0,102.5,38.5,20.5
2023-05-21 11:00:00,102,36.0,102.5,39.5,18.0
2023-05-21 12:00:00,96,35.0,96.5,40.0,17.0
2023-05-21 13:00:00,90,28.5,90.0,42.0,15.0
2023-05-21 14:00:00,70,19.5,70.0,44.5,12.0
2023-05-21 15:00:00,74,21.5,74.0,45.5,12.0
2023-05-21 16:00:00,72,19.5,72.0,46.0,11.5
2023-05-21 17:00:00,63,16.0,63.0,46.0,10.5
2023-05-21 18:00:00,81,22.5,81.0,43.5,12.0
2023-05-21 19:00:00,90,33.0,89.5,41.0,15.5
2023-05-21 20:00:00,98,41.5,97.5,39.0,20.0
2023-05-21 21:00:00,114,47.0,121.0,38.0,22.5
2023-05-21 22:00:00,143,56.5,165.0,37.5,24.5
2023-05-21 23:00:00,135,57.0,152.5,37.0,25.5
2023-05-22 00:00:00,132,60.5,148.5,36.0,27.5
2023-05-22 01:00:00,123,58.0,134.0,36.0,28.5
2023-05-22 02:00:00,122,57.5,133.5,36.0,29.0
2023-05-22 03:00:00,116,48.0,123.5,35.5,28.0
2023-05-22 04:00:00,94,28.5,94.0,34.5,24.5
2023-05-22 05:00:00,88,22.0,87.5,34.0,24.5
2023-05-22 06:00:00,114,32.5,120.5,34.0,25.0
2023-05-22 07:00:00,128,38.5,141.5,34.5,25.0
2023-05-22 08:00:00,115,30.0,123.0,35.0,25.0
2023-05-22 09:00:00,126,33.5,139.5,36.5,25.5
2023-05-22 10:00:00,131,30.5,146.5,38.5,25.5
2023-05-22 11:00:00,152,31.0,178.5,39.5,25.5
2023-05-22 12:00:00,117,25.5,125.5,40.5,22.5
2023-05-22 13:00:00,96,20.5,96.5,42.5,19.0
2023-05-22 14:00:00,147,28.5,170.0,43.5,17.0
2023-05-22 15:00:00,108,21.0,111.5,44.0,17.0
2023-05-22 16:00:00,113,21.0,119.5,44.5,16.0
2023-05-22 17:00:00,108,20.5,112.5,44.0,16.5
2023-05-22 18:00:00,138,28.5,157.0,42.5,18.0
2023-05-22 19:00:00,173,35.5,210.0,41.0,18.0
2023-05-22 20:00:00,175,40.5,212.0,40.0,18.0
2023-05-22 21:00:00,170,43.5,204.5,39.5,18.0
2023-05-22 22:00:00,169,51.0,204.0,38.5,19.0
2023-05-22 23:00:00,172,54.5,208.0,38.0,20.0
2023-05-23 00:00:00,124,40.0,136.5,37.0,21.5
2023-05-23 01:00:00,101,31.5,101.5,36.0,23.0
2023-05-23 02:00:00,102,31.0,103.0,36.0,24.0
2023-05-23 03:00:00,110,36.0,114.5,36.0,23.0
2023-05-23 04:00:00,87,23.5,87.0,35.5,23.5
2023-05-23 05:00:00,78,21.0,78.0,35.0,24.5
2023-05-23 06:00:00,100,32.0,100.0,34.0,26.5
2023-05-23 07:00:00,98,31.5,97.5,34.0,28.0
2023-05-23 08:00:00,88,24.5,88.5,35.5,28.0
2023-05-23 09:00:00,92,23.0,91.5,36.5,28.0